Showing default

OPS 6909 (VELA 9), 3954

Orbit data source: Space-Track

OPS 6909 (VELA 9), 3954 is a payload satellite owned by SAMSO (US) in HEO that was launched on Fri, 23 May 1969 UTC via a TITAN IIIC launch vehicle from the Air Force Eastern Test Range (AFETR). Payload-class satellites include a variety of spacecraft equipped with specific instruments for various scientific and technological missions. These include communications satellites like Starlink; space stations such as the ISS; scientific satellites like the Hubble; Earth observation satellites from companies like Planet Labs, Umbra, and HawkEye 360; GPS; miniature CubeSats for education and research; and military/defense satellites.

Not visible in the next 10 days
Identifier
3954, 1969-046D
Orbit
HEO
Country
Flag of USUS
Related business
Manufacturer
TRW
Mission
Spacecraft
Bus & Motor
VELA, BE-3A7
Mass
348 kg wet, 250 kg dry
Launch date (UTC)
1969-05-23 (57 years ago)
Launch vehicle
TITAN IIIC
Launch site
Air Force Eastern Test Range (AFETR)
Object type
Payload
Rocket body
Debris
Shape & HBR
Unknown
Radar Cross Section
Medium (>0.1 m² and <1 m²)

Expand to show TLE details & history
Last TLE update: 5 months ago

TLE from 5 months ago
0 OPS 6909 (VELA 9)
1 03954U 69046D   26013.28088617  .00000046  00000-0  00000-0 0  9998
2 03954  89.1343  29.9242 7044937  89.6246   1.2250  0.21516406 12679
Epoch: 2026-01-13T06:44Z
TLE epoch observation values (Epoch: 2026-01-13T06:44:28.565Z)
Latitude
81.57615°
Longitude
-10.8064°
Altitude
28,028.846 km
Speed
4.449 km/s
True Right ascension
13h 32m 18s
True Declination
81° 33' 57"
Sunlit
Object was in daylight at epoch
Visualization orbit readout
Latitude
Unknown
Longitude
Unknown
Altitude
Unknown
Speed
Unknown
Apparent Right ascension
Unknown
Apparent Declination
Unknown
Sunlit
N/A
Visualization observer readout
Local Sidereal Time
01:06:02
Azimuth
Unknown
Elevation
Unknown
Doppler factor
Unknown
Orbital elements
Apogee altitude
194,137.889 km
Perigee altitude
28,385.118 km
Semi-major axis
117,639.641 km
Eccentricity
0.70449
Inclination
89.1343°
RAAN
29.9242°
Arg. of periapsis
89.6246°
True anomaly
9.9149°
Mean anomaly
1.225°
Eccentric anomaly
4.13686°
Mean motion
0.05379 °/min
Orbital period
6,692.52 mins
BSTAR
0
Loading maneuver chart data...
Computing Atmospheric mass density...
Loading historical data...
Loading historical data...
Loading historical data...
Loading historical data...
Loading historical data...
Loading historical data...
Loading historical data...

Documentation

Showing up to 5 results
|